sat.trackr.live / text

‹ back to catalog

STARLINK-11243 [DTC]

NORAD 60927 · 2024-155D

PAYLOAD ACTIVE UNKNOWN

§ Identity

Operator
Country
US
Launch date
2024-08-31
Launch site
AFWTR
Launch vehicle
Mass (kg)
RCS (m²)

Purposes: comms

External: N2YO · Heavens-Above · Gunter

§ Orbital elements

Epoch: 2026-05-24T19:03:29.919456Z

Period
91.74 min
Inclination
53.1582°
Eccentricity
0.0000423
Mean motion
15.69703901 rev/d
Perigee alt
359.5 km
Apogee alt
360.0 km
Semi-major
6,737.9 km
B*
1.1324e-5
RAAN
326.2174°
Arg perigee
37.0804°
Mean anomaly
323.0243°
Rev number
10,035

§ Raw data

STARLINK-11243 [DTC]1 60927U 24155D   26144.79409629  .00000784  00000+0  11324-4 0  99972 60927  53.1582 326.2174 0000423  37.0804 323.0243 15.69703901100353

JSON: /api/v1/satellites/60927 · /tle

For live sub-satellite position, see the globe view (requires WebGL).

§ Visibility from observer

Set your observer location to see the next 7 days of passes ≥ 10°. The values pass through the URL so the page stays shareable.

No JS? Fill the form by hand. The geolocation button needs JavaScript.